#timestamp,LO_Frequency,Hit,StdDev 
1506891615.2,286047002.6,N
1506891635.0,286047007.4,N
1506891635.9,286047007.4,N
1506891655.8,286047013.5,N
1506891675.6,286047016.8,N
1506891695.4,286047013.4,N
1506891715.3,286047015.2,N
1506891735.1,286047013.6,N
1506891736.0,286047013.6,N
1506891755.8,286047011.0,N
1506891775.7,286047010.9,N
1506891795.5,286047014.9,N
1506891815.3,286047016.6,N
1506891835.2,286047022.0,N
1506891855.9,286047020.5,N
1506891875.7,286047021.6,N
1506891895.5,286047019.5,N
1506891915.4,286047019.4,N
1506891935.2,286047021.4,N
1506891955.0,286047020.6,N
1506891955.9,286047020.6,N
1506891975.8,286047022.0,N
1506891995.6,286047022.3,N
1506892015.4,286047020.8,N
1506892035.3,286047022.3,N
1506892055.1,286047020.8,N
1506892056.0,286047020.8,N
1506892075.8,286047022.6,N
1506892095.7,286047022.9,Y
1506892115.5,286047008.2,P
1506892135.3,286047008.4,N
1506892155.2,286047009.8,N
1506892175.9,286047012.0,Y
1506892195.7,286046999.7,P
1506892215.6,286047004.1,N
1506892235.4,286047003.2,N
1506892255.2,286047001.9,N
1506892275.1,286047000.2,N
1506892276.0,286047000.2,N
1506892295.8,286047006.0,N
1506892315.6,286047003.7,N
1506892335.5,286047001.5,N
1506892355.3,286047000.8,N
1506892375.1,286046998.0,N
1506892395.9,286046993.6,N
1506892415.7,286046990.1,N
1506892435.5,286046990.6,N
1506892455.3,286046989.1,N
1506892475.2,286046986.9,N
1506892495.0,286046989.5,N
1506892495.9,286046989.5,N
1506892515.7,286046987.7,N
1506892535.6,286046985.6,N
1506892555.4,286046987.6,N
1506892575.2,286046988.7,N
1506892595.1,286046988.0,N
1506892596.0,286046988.0,N
1506892615.8,286046986.5,N
1506892635.6,286046986.8,N
1506892655.5,286046984.4,N
1506892675.3,286046985.2,N
1506892695.1,286046984.5,N
1506892715.9,286046982.8,N
1506892735.7,286046980.5,N
1506892755.5,286046983.5,N
1506892775.3,286046979.4,N
1506892795.2,286046980.4,N
1506892815.0,286046979.6,N
1506892815.9,286046979.6,N
1506892835.7,286046979.3,N
1506892855.6,286046980.3,Y
1506892875.4,286046991.0,P
1506892895.2,286046989.3,P
1506892915.1,286046991.1,P
1506892916.0,286046991.1,Y
1506892935.8,286047002.2,P
1506892955.7,286047002.0,N
1506892975.5,286047001.2,N
1506892995.3,286046995.4,N
1506893015.1,286046995.2,N
1506893035.9,286046996.5,N
1506893055.7,286046997.6,N
1506893075.5,286046995.7,N
1506893095.4,286046994.5,N
1506893115.2,286046991.8,N
1506893135.0,286046992.8,N
1506893135.9,286046992.8,N
1506893155.8,286046990.2,N
1506893175.6,286046989.0,N
1506893195.4,286046988.5,N
1506893215.3,286046989.7,N
1506893235.1,286046989.7,N
1506893236.0,286046989.7,N
1506893255.8,286046991.3,N
1506893275.6,286046992.6,N
1506893295.5,286046991.2,N
1506893315.3,286046993.2,N
1506893335.1,286046994.1,N
1506893355.9,286046994.6,N
1506893375.7,286046993.3,N
1506893395.5,286046994.5,N
1506893415.4,286046994.6,N
1506893435.2,286046993.0,N
1506893455.0,286046992.7,N
1506893455.9,286046992.7,N
1506893475.8,286046994.6,N
1506893495.6,286046994.7,N
1506893515.4,286046990.1,Y
1506893535.3,286046995.7,P
1506893555.1,286046997.3,N
1506893556.0,286046997.3,N
1506893575.8,286046998.2,N
1506893595.7,286047001.3,N
1506893615.5,286047008.7,Y
1506893635.3,286047012.6,P
1506893655.2,286047017.0,N
1506893675.9,286047017.9,N
1506893695.7,286047021.9,N
1506893715.6,286047019.8,N
1506893735.4,286047017.7,N
1506893755.2,286047022.6,N
1506893775.1,286047025.7,Y
1506893776.0,286047025.7,P
1506893795.8,286047013.0,N
1506893815.6,286047009.3,N
1506893835.5,286047007.9,N
1506893855.3,286047013.0,N
1506893875.1,286047015.0,N
1506893895.8,286047015.4,N
1506893915.7,286047012.7,N
1506893935.5,286047015.1,Y
1506893955.4,286047004.4,P
1506893975.2,286047005.6,N
1506893995.0,286047006.6,N
1506893995.9,286047006.6,N
1506894015.7,286047006.4,N
1506894035.6,286047004.5,N
1506894055.4,286047004.3,N
1506894075.2,286047002.9,N
1506894095.1,286047008.7,N
1506894096.0,286047008.7,N
1506894115.8,286047008.7,N
1506894135.6,286047008.7,Y
1506894155.5,286047003.2,P
1506894175.3,286047007.6,P
1506894195.1,286047008.9,P
1506894215.9,286047007.2,Y
1506894235.7,286046998.6,P
1506894255.5,286047001.1,N
1506894275.4,286046998.4,N
1506894295.2,286046999.4,N
1506894315.0,286046996.9,N
1506894315.9,286046996.9,N
1506894335.8,286046993.5,N
1506894355.6,286046994.7,N
1506894375.4,286046989.2,N
1506894395.3,286046985.8,Y
1506894415.1,286046983.9,P
1506894435.8,286046986.6,N
1506894455.7,286046984.4,N
1506894475.5,286046985.2,N
1506894495.3,286046983.3,Y
1506894515.2,286046994.1,P
1506894535.9,286046996.0,N
1506894555.7,286046996.3,N
1506894575.6,286046995.5,N
1506894595.4,286046996.0,N
1506894615.2,286046990.5,Y
1506894635.1,286046999.3,P
1506894636.0,286046999.3,N
1506894655.8,286046997.5,N
1506894675.6,286046995.3,N
1506894695.5,286046993.5,Y
1506894715.3,286046994.0,P
1506894735.1,286046992.2,P
1506894755.9,286046990.5,P
1506894775.7,286046992.3,Y
1506894795.5,286046998.8,P
1506894815.4,286046995.3,N
1506894835.2,286046993.9,N
1506894855.0,286046993.5,Y
1506894855.9,286046993.5,P
1506894875.8,286047001.2,N
1506894895.6,286047001.2,N
1506894915.4,286047001.2,N
1506894935.3,286046999.1,N
1506894955.1,286047000.1,N
1506894956.0,286047000.1,N
1506894975.8,286047003.1,N
1506894995.7,286047002.0,N
1506895015.5,286047002.4,N
1506895035.3,286046998.2,N
1506895055.1,286047000.8,N
1506895075.9,286047000.5,N
1506895095.7,286046998.8,N
1506895115.5,286046996.5,N
1506895135.4,286046996.5,N
1506895155.2,286046999.2,N
1506895175.0,286047000.8,N
1506895175.9,286047000.8,N
1506895195.8,286046998.6,N
